Terminal Aerodrome Forecast
Issued by NWS

Home | Current Version | Previous Version | Text Only | Print | Product List | Glossary On
Versions: 1 2 3 4 5 6 7 8 9 10 11 12 13 14 15 16 17 18 19 20 21 22 23 24 25 26 27 28 29 30 31 32 33 34 35 36 37 38 39 40 41 42
000
FTUS43 KDMX 161132
TAFFOD
TAF
KFOD 161132Z 1612/1712 33012KT P6SM -SN BKN018 OVC035
     FM161600 33009KT P6SM SCT015 BKN060
     FM161800 32008KT P6SM SCT015
     FM170500 23005KT P6SM SCT100=

USA.gov is the U.S. government's official web portal to all federal, state and local government web resources and services.